Regional Weather Roundup
Issued by NWS Wakefield, VA

Home | Current Version | Previous Version | Text Only | Print | Product List | Glossary Off
Versions: 1 2 3 4 5 6 7 8 9 10 11 12 13 14 15 16 17 18 19 20 21 22 23 24 25 26 27 28

000
ASUS41 KAKQ 260015
RWRAKQ

REGIONAL WEATHER ROUNDUP
NATIONAL WEATHER SERVICE WAKEFIELD VA
800 PM EDT SAT MAR 25 2017

Note: "fair" indicates few or no clouds below 12,000 feet with no
significant weather and/or obstructions to visibility. * = Denotes
station may not report precipitation (e.g., rain,snow,etc.),
thunder or fog.

VAZ042-051-052>054-056-260100-
NORTHERN VIRGINIA

CITY           SKY/WX    TMP DP  RH WIND       PRES   REMARKS
WASH NATIONAL  CLOUDY    72  51  47 E9        30.16R
DULLES         CLOUDY    70  51  51 E3        30.16R
FORT BELVOIR   CLOUDY    72  52  49 CALM      30.15R
QUANTICO       CLOUDY    69  52  54 SW6       30.16R
FREDERICKSBRG* CLOUDY    74  53  47 S7        30.15R
STAFFORD*      CLOUDY    72  51  46 S3        30.19R
WARRENTON      CLOUDY    71  50  47 CALM      30.15R
CULPEPER*      CLOUDY    72  55  53 CALM      30.16R
MANASSAS*        N/A     74  51  44 E6        30.15R
LEESBURG*      CLOUDY    72  55  56 E3        30.17R
WINCHESTER     PTCLDY    63  52  67 CALM      30.16R
FRONT ROYAL*   MOCLDY    70  52  52 E3        30.14S
LURAY*         CLOUDY    68  54  60 NE6       30.15R
$$

VAZ048-049-060>072-079>083-260100-
CENTRAL AND SOUTH CENTRAL VIRGINIA

CITY           SKY/WX    TMP DP  RH WIND       PRES   REMARKS
RICHMOND       CLOUDY    68  52  56 S7        30.18R
CHESTERFIELD*  FAIR      70  41  35 S7        30.20R
PETERSBURG*    CLOUDY    66  51  57 CALM      30.20R
HANOVER        CLOUDY    71  49  45 S6        30.19R
TAPPAHANNOCK*  CLOUDY    71  37  27 S5        30.18S
QUINTON*       FAIR      70  52  52 SE3       30.19R
CHARLOTTSVILLE CLOUDY    72  50  45 S9        30.15R
GORDONSVILLE*  CLOUDY    69  51  52 S5        30.15S
ORANGE*        CLOUDY    70  50  49 CALM      30.17R
LOUISA*        CLOUDY    73  54  49 CALM      30.16R
BUMPASS*       FAIR      70  51  50 S9        30.17R
FARMVILLE*     CLOUDY    67  52  57 S6        30.17R
CREWE*         FAIR      65  52  63 CALM      30.19R
FORT PICKETT*  FAIR      64  44  48 S5        30.19S
CHASE CITY*    FAIR      63  49  60 CALM      30.20R
CLARKSVILLE*   FAIR      68  50  52 S3        30.19R
SOUTH HILL*    MOCLDY    62  54  75 CALM      30.25S
LAWRENCEVILLE* FAIR      64  52  64 CALM      30.20R
EMPORIA*       PTCLDY    59  50  72 CALM      30.22R
$$

VAZ088>098-260100-
SOUTHEAST VIRGINIA

CITY           SKY/WX    TMP DP  RH WIND       PRES   REMARKS
NORFOLK        CLOUDY    67  50  54 SW5       30.20R
VIRGINIA BEACH CLOUDY    68  49  50 S3        30.21R
NORFOLK NAVAL  CLOUDY    69  49  48 CALM      30.22R
WEST POINT*    MOCLDY    68  49  50 S3        30.21R
SALUDA*        FAIR      70  53  54 SW6       30.19R
NEWPORT NEWS   CLOUDY    66  51  58 SW8       30.20R
LANGLEY AFB    MOCLDY    69  52  54 S7        30.20R
FORT EUSTIS    PTCLDY    68  52  57 S6        30.18R
WILLIAMSBURG*  MOCLDY    70  54  56 CALM      30.21R
HR EXEC AP*    FAIR      61  48  63 CALM      30.19R
FRANKLIN*      MOCLDY    67  50  55 CALM      30.21S
US460-WAKEFLD  CLOUDY    65  53  65 CALM      30.20S
$$

VAZ020-022-025-037-045-260100-
WEST CENTRAL AND SOUTHWEST VIRGINIA

CITY           SKY/WX    TMP DP  RH WIND       PRES   REMARKS
STAUNTON*      CLOUDY    69  49  49 S6        30.18R
WAYNESBORO*    MOCLDY    67  50  53 CALM      30.17S
HOT SPRINGS VA PTCLDY    59  43  55 SE8       30.24R
LYNCHBURG      PTCLDY    65  49  56 S6        30.20R
DANVILLE       PTCLDY    65  49  56 S3        30.19R
SOUTH BOSTON*  FAIR      68  47  46 S3        30.19R
MARTINSVILLE   PTCLDY    63  47  55 CALM      30.22R
ROANOKE        MOCLDY    68  48  48 S13       30.19R
BLACKSBURG     CLOUDY    65  49  56 S6        30.23R
DUBLIN*        MOCLDY    65  48  55 S10       30.20R
MARION*        CLEAR     63  48  56 E7        30.21R
HILLSVILLE*    CLEAR     60  48  64 CALM      30.21R
RICHLANDS*     MOCLDY    66  47  50 SE6       30.15R
WISE*          PTCLDY    66  41  39 CALM      30.15R
ABINGDON*      CLEAR     69  47  45 S10       30.13R
$$

MDZ021>025-VAZ099-100-260100-
SOUTHERN MARYLAND AND THE DELMARVA PENINSULA

CITY           SKY/WX    TMP DP  RH WIND       PRES   REMARKS
PATUXENT RIVER CLOUDY    55  51  86 CALM      30.17R
BAY BRIDGE APT CLOUDY    68  52  56 SE6       30.17R
LEONARDTOWN    CLOUDY    63  52  67 E3        30.19R
DOVER          CLOUDY    55  49  79 E18       30.20R
GEORGETOWN     MOCLDY    65  54  67 CALM      30.19R
EASTON         PTCLDY    70  52  52 SE3       30.21R
CAMBRIDGE      CLEAR     64  54  68 S6        30.18R
SALISBURY      CLOUDY    67  55  65 S3        30.19R
OCEAN CITY     CLOUDY    54  47  77 CALM      30.21R
WALLOPS ISLAND CLOUDY    54  49  83 S9        30.21R
ACCOMACK*      CLOUDY    69  52  55 S6        30.20R
$$

NCZ012>017-030>032-260100-
NORTH CENTRAL AND EASTERN NORTH CAROLINA

CITY           SKY/WX    TMP DP  RH WIND       PRES   REMARKS
ROANOKE RAPIDS FAIR      66  50  55 S5        30.21R
RALEIGH        MOCLDY    70  48  45 S6        30.21R
ELIZABETH CITY PTCLDY    66  51  58 S9        30.23R
AHOSKIE*         N/A     64  51  64 CALM      30.22R
EDENTON*       PTCLDY    68  53  57 S9        30.24R
CURRITUCK*     PTCLDY    67  52  57 S5        30.23S
KILL DEVIL HLS NOT AVBL
MANTEO         PTCLDY    60  53  76 SW10      30.26R
CAPE HATTERAS  PTCLDY    64  55  72 SW9       30.27S
TARBORO*       NOT AVBL
GOLDSBORO      CLOUDY    69  52  54 S6        30.21R
WASHINGTON     CLOUDY    67  52  57 S6        30.24S
GREENVILLE     CLOUDY    68  52  56 S7        30.24R
NEW BERN       CLOUDY    66  54  65 S9        30.26R
WILMINGTON     PTCLDY    65  55  70 S6        30.25S
$$

VAZ048-260100-
ELSEWHERE

CITY           SKY/WX    TMP DP  RH WIND       PRES   REMARKS
HARRISBURG PA  MOCLDY    63  48  58 VRB6G21   30.20R
BALTIMORE      CLOUDY    70  52  52 SE3       30.17R
ANNAPOLIS      CLOUDY    62  51  67 SE5       30.17R
ANDREWS AFB    CLOUDY    71  51  49 E8        30.16R
PHILADELPHIA   CLOUDY    50  43  77 E18       30.28R
HENDERSON NC   PTCLDY    64  47  53 CALM      30.21R
GREENSBORO     MOCLDY    67  48  50 S5        30.19R
ROCKY MOUNT    CLOUDY    64  52  64 CALM      30.21S
$$

VAZ100-260100-
MARINE

STATION/POSITION TIME  TEMP    WIND        PRES    WAVE   SWELL
                       AIR SEA DIR/SP/G            HT/PER HT/PER
                 (UTC) (F)     (DEG/KT/KT) (MB)    (FT/S) (FT/S)
CAPE MAY NJ      2342   54 47   80/ 13/ 21 1023.0R
LEWES DE         2348      47   90/ 18/ 27 1022.9R
OCEAN-CITY-INLET 2348   49 45  210/  6/  8 1023.2R
WACHAPREAGUE VA  2348      56  200/  5/  6 1022.5R
THOMAS POINT MD  0000      47  200/ 10/ 10   N/A
GOOSES REEF MD   0000   53 46   CALM  /  2 1022.6    1
COVE POINT MD    2348   58     180/ 12/ 13 1022.4R
SOLOMONS ISLAND  2348   55 48   90/  5/  7   N/A
BISHOPS HEAD MD  2348   54 55  130/  7/  7 1022.4R
PINEY POINT MD   2336          120/  6/  6   N/A
POTOMAC MD       2350   54     120/  2/  4 1021.0R
CAMBRIDGE MD     2348   70 46  170/  2/  4 1021.2R
LEWISETTA VA     2348   72 53  190/  4/  4 1021.5R
RAPPAHANNOCK LGT 2336          200/ 13/ 14 1022.9R
STINGRAY PT      2350   56     180/  6/  8 1022.2R
YORK RVR RNG VA  2348   67     220/ 10/ 10 1021.9R
YORKTOWN VA      2348   70 49  210/  3/  6 1022.3R
JAMESTOWN VA     2350   68     200/  4/  6   N/A
DOMINION TERM VA 2348   63     220/  6/  7 1022.9R
KIPTOPEKE VA     2336      49  160/  4/  4   N/A
CHES BAY BRIDGE  2336   70 48  230/  9/ 10 1022.7R
CAPE HENRY VA    2336   71     220/  5/  7   N/A
WILLOUBY STN VA  2336   70     230/ 10/ 10 1023.7R
S CRANEY ISL VA  2336   70     230/  3/  4 1022.5R
CAPE HENRY BUOY  2342      50                N/A     2/ 6
CAPE CHARLES BUO 2351      50                N/A     2/ 5
OFFSHORE WE BUOY 2351      49                N/A     2/ 5
64NM E OF VA BCH 2350   55 49  210/ 12/ 14 1023.9R   2/ 5   2/ 7
DUCK PIER NC     2336   64 47  190/ 10/ 12 1023.4R
44100 DUCK FRF   2335      50                N/A     2/ 4
44056 DUCK FRF   2330      50                N/A     1/ 9
OREGON INLET NC  2336   60 58  200/ 13/ 14 1024.3R
HATTERAS NC      2336   63 58  200/  7/  9 1024.7F
DIAMOND SHLS NC  2350   71 77  210/ 16/ 19 1025.1R   3/ 5   2/ 7
CAPE LOOKOUT NC  2300   67     230/  4/  6 1024.9S
$$




USA.gov is the U.S. government's official web portal to all federal, state and local government web resources and services.